Location: *
(28.2408°N, 53.4600°E)
Time: 11:27:56
(UTC+00:00)

NOSS 3-4 (C) - Pass Details

Date: 22 September 2019
Orbit: 913 x 1299 km, 63.4° (Epoch: 21 September)

Event Time Altitude Azimuth Distance (km) Brightness Sun altitude
Rises 15:10:21 0° 340° (NNW) 3,923 7.0 -11.2°
Reaches altitude 10° 15:13:09 10° 348° (NNW) 3,020 6.3 -11.8°
Maximum altitude 15:19:58 41° 57° (ENE) 1,680 4.4 -13.3°
Enters shadow 15:25:41 16° 120° (ESE) 2,764 5.3 -14.5°
